User: anonymous   Login
Location: Unspecified
(0.0000°N, 0.0000°E)
Time: 00:21:34
(UTC+00:00)
Language:

Meteor 2-5 - Orbit

View from above orbital plane
View from above orbital plane
View from above satellite
View from above satellite

Ground track
Ground track

The orbit data is extracted from the following two-line orbital elements,

1 11605U 79095A   18203.34718135 +.00000185 +00000-0 +10333-3 0  9996
2 11605 081.2115 158.7279 0011955 103.7690 256.4810 14.07070087987283
Epoch (UTC): 22 July 2018 08:19:56
Eccentricity: 0.0011955
inclination: 81.2115°
perigee height: 861 km
apogee height: 878 km
right ascension of ascending node: 158.7279°
argument of perigee: 103.7690°
revolutions per day: 14.07070087
mean anomaly at epoch: 256.4810°
orbit number at epoch: 98728

The dashed part of the orbit path shows where the satellite is in the earth's shadow,  

DLR